GFSNE_con_3kmhel_000.txt.gz
Helicity
157 117 132 143 133 134 130 131 151 142 128 106 76 -27 31 185 159 157 161 77 114 167 203 205 212 192 184 199 180 173 175 212 229 227 190 173 146 143
137 114 115 127 138 135 128 122 134 134 100 117 106 53 -113 43 131 126 192 179 117 119 157 211 210 222 215 232 253 288 294 302 303 283 259 198 171 148
113 115 106 101 131 123 113 113 136 147 117 72 85 79 51 -6 -57 39 249 79 125 101 109 149 210 243 263 325 378 417 437 436 380 311 260 194 155 143
98 104 111 137 115 117 113 93 96 103 118 61 67 53 16 16 41 -40 50 116 150 134 136 139 205 265 349 510 570 566 531 515 442 351 253 203 155 136
102 100 103 103 130 154 125 104 92 84 97 79 49 41 23 11 30 35 -18 7 137 149 171 205 272 285 443 578 640 639 607 528 427 349 283 205 180 150
133 126 111 114 138 135 134 121 105 88 93 99 69 29 42 -6 32 24 48 59 167 230 128 242 342 459 488 587 621 601 550 438 407 327 227 217 213 240
-7 41 46 25 -27 64 165 132 131 132 104 105 91 79 55 55 55 78 86 160 160 188 284 379 379 504 623 626 600 556 507 463 386 274 251 285 369 288
-79 58 83 51 40 14 -16 -2 139 202 136 121 102 95 44 63 19 89 141 189 171 310 335 507 515 487 531 595 602 550 468 468 367 341 326 334 319 256
78 83 70 88 68 71 54 8 1 92 135 171 159 99 84 60 60 69 119 141 198 222 326 435 486 559 688 745 631 440 412 393 329 291 316 288 260 242
100 91 82 77 78 76 79 69 -5 86 112 131 128 160 107 73 71 53 95 189 235 182 357 304 473 531 629 674 504 379 360 313 282 286 264 251 247 247
106 110 102 95 75 63 65 22 -9 -20 111 72 57 105 205 168 282 109 165 228 267 247 340 377 331 506 513 542 480 287 368 237 264 282 270 266 264 272
87 89 77 97 67 67 60 36 21 -27 80 111 141 83 120 120 201 222 167 176 254 259 256 424 427 541 448 564 457 498 418 294 351 330 307 312 263 254
94 92 111 128 165 142 82 80 25 -32 -16 88 95 124 123 103 92 118 193 171 254 243 207 334 342 498 520 517 568 618 547 528 523 432 353 348 222 173
56 62 -3 6 2 75 137 83 28 -18 -48 38 121 131 151 138 125 128 99 121 154 139 84 269 304 384 470 446 658 595 586 568 495 496 495 423 292 277
-16 -23 15 21 41 44 71 79 70 19 35 -7 101 99 115 121 124 157 164 208 242 205 119 226 210 318 333 401 614 589 670 519 464 493 521 473 264 185
-4 3 12 10 -6 11 23 92 25 -11 8 47 68 86 98 162 185 197 242 307 369 336 315 193 273 265 351 394 386 537 573 647 585 476 361 225 198 145
23 16 0 -9 17 46 19 27 3 -16 1 42 139 157 139 179 178 282 319 296 300 318 307 205 211 262 208 246 267 264 328 372 281 244 212 222 172 105
7 -5 13 21 24 36 62 43 -22 -17 -21 -32 131 115 125 150 211 238 263 281 313 297 289 291 307 311 349 405 274 227 202 225 219 204 185 188 127 98
32 36 13 2 30 70 84 102 48 57 61 15 7 133 163 152 169 198 232 300 361 341 270 335 250 194 243 315 414 403 155 169 198 194 139 108 103 116
26 56 73 57 48 28 79 117 118 -28 -24 30 10 65 14 142 202 225 234 304 365 324 269 227 181 164 177 294 350 306 261 173 156 134 123 129 170 228
-8 12 32 41 40 52 47 39 52 71 10 -29 -17 -9 42 80 125 159 172 239 249 274 275 301 371 312 309 297 298 290 252 282 212 126 122 116 113 113
39 19 34 49 54 40 -2 52 57 77 51 -33 64 -10 73 87 140 224 253 249 247 248 228 218 204 220 224 212 210 155 149 156 179 169 187 226 226 151
64 51 44 37 50 56 53 45 8 40 35 31 34 55 76 101 120 112 128 129 136 154 174 205 198 179 150 119 102 124 121 102 103 114 136 174 179 198

GFSNE_con_3kmhel_003.txt.gz
Helicity
143 145 145 136 131 126 127 171 195 164 164 143 158 116 99 91 98 145 151 88 108 111 228 269 271 271 245 242 214 166 145 157 176 170 161 176 212 176
137 127 123 119 111 112 121 117 174 214 178 194 172 212 130 83 59 38 66 136 90 -25 145 182 228 279 276 261 257 245 213 183 179 187 228 284 302 241
103 103 98 90 102 96 102 116 139 180 156 119 156 140 191 106 20 78 135 49 156 150 10 85 141 209 285 312 310 312 304 303 265 285 330 324 329 256
113 115 117 122 96 89 79 100 135 151 186 126 98 127 144 123 104 -18 17 90 54 124 175 -11 117 161 245 310 352 374 307 324 340 421 397 364 311 234
124 128 128 118 97 88 71 91 114 135 153 165 109 110 101 95 96 27 -17 32 28 -38 49 237 173 153 170 263 340 372 460 469 519 514 492 429 347 278
157 185 185 167 131 112 125 99 87 108 135 143 129 107 87 73 97 73 32 51 73 98 128 12 91 173 159 174 287 338 510 570 616 616 605 549 455 343
187 171 127 84 12 24 114 132 183 145 109 113 112 114 80 54 62 80 74 22 104 87 76 160 93 60 42 144 196 321 534 625 653 648 625 533 460 427
-45 -17 32 57 56 53 34 41 61 139 141 197 83 101 85 73 64 58 33 71 83 107 142 164 392 155 157 302 252 312 503 680 670 657 562 472 425 402
-71 72 97 86 71 80 64 71 70 46 -9 15 -62 178 120 91 66 33 62 104 84 85 153 145 335 315 208 427 378 469 605 714 709 629 566 517 429 405
82 95 96 99 99 92 94 94 89 90 88 86 -50 -81 167 145 139 130 80 119 189 135 191 153 290 270 330 413 466 455 702 733 723 640 487 495 403 367
97 104 102 103 83 55 96 111 94 108 93 72 70 -24 -69 86 114 148 102 122 156 160 224 205 243 369 377 340 409 512 559 831 627 572 610 420 404 326
144 128 99 113 75 62 89 92 101 117 104 103 97 72 -20 52 28 115 169 112 166 159 168 251 261 324 315 379 345 453 562 551 564 466 460 354 347 390
78 99 108 101 108 111 99 95 110 96 86 93 101 115 76 58 44 91 96 131 157 146 101 294 260 335 300 324 375 410 521 543 523 425 349 377 291 300
66 71 57 43 42 13 16 36 66 123 100 97 99 90 83 68 124 114 95 130 157 99 25 161 196 297 288 335 403 400 400 424 364 432 518 398 251 452
69 62 47 44 47 38 59 89 103 112 132 88 86 79 52 60 96 111 137 137 134 108 83 78 140 218 256 249 297 375 426 444 454 497 471 491 429 504
14 -8 25 49 19 49 34 24 99 68 100 104 63 38 52 67 121 132 186 204 222 210 226 244 161 177 249 255 310 420 443 438 442 435 502 427 535 473
37 40 2 1 -4 14 20 32 60 76 60 34 47 75 79 100 150 196 184 185 182 161 208 218 230 253 250 266 325 355 427 388 418 460 440 428 312 235
-2 1 -2 14 35 58 74 17 26 31 11 -22 57 91 130 174 133 161 131 170 173 165 157 187 250 271 255 292 178 256 309 312 364 330 296 254 205 162
-20 -7 -1 7 23 44 95 139 27 -30 -32 -53 -50 146 131 109 67 77 105 180 228 231 202 217 213 184 136 209 245 213 189 214 285 265 225 196 201 179
-42 -14 35 52 35 39 65 142 118 49 36 30 37 -22 33 69 65 61 122 136 202 233 203 137 100 95 114 183 262 286 231 215 239 223 203 206 312 301
-26 -16 76 81 79 74 24 60 119 5 -22 22 -4 2 -7 -1 109 103 118 132 189 199 159 137 189 169 285 272 282 332 424 328 229 179 208 244 244 227
23 36 63 75 81 77 69 43 36 54 -10 -9 -11 18 -9 -14 -24 -19 78 130 155 213 280 273 249 219 168 125 186 289 304 279 263 325 309 267 209 144
75 42 45 57 62 69 69 59 58 61 72 63 -13 -44 -38 25 113 19 24 65 247 265 242 247 234 202 159 160 184 218 252 247 220 197 175 182 186 182

GFSNE_con_3kmhel_009.txt.gz
Helicity
143 163 157 135 128 113 95 86 53 -25 -28 -33 -28 -9 37 49 47 14 -9 30 66 115 32 -3 29 51 80 5 78 352 293 180 187 153 151 142 125 145
147 157 147 129 118 118 106 97 94 64 -35 -2 -3 -7 19 49 58 45 -1 -19 5 32 44 15 -28 11 -34 -13 40 98 438 311 244 213 183 177 168 166
146 134 127 120 126 112 105 110 111 98 53 -4 -7 -3 10 10 28 26 31 31 18 -26 3 -54 56 10 -20 -24 -94 69 126 446 337 268 237 209 211 197
117 130 110 99 96 94 97 90 89 82 84 21 20 8 7 18 17 51 72 48 34 21 -13 -53 -44 24 17 -54 -64 -127 -4 141 311 279 292 264 244 278
118 123 109 108 97 83 66 68 75 72 75 54 23 30 37 39 36 51 50 60 95 22 -12 -10 -43 -50 -48 -15 -36 13 -17 27 93 504 383 355 288 312
153 150 136 124 113 99 82 69 61 68 65 49 15 8 -9 12 48 47 70 80 72 55 27 14 8 -22 -38 -32 -62 -45 19 100 163 134 507 457 368 332
113 106 104 94 60 77 107 85 87 86 77 63 27 9 10 -2 17 50 61 86 86 54 62 77 67 38 -17 -28 -11 -49 33 -1 33 116 122 515 424 370
107 96 99 82 94 3 -46 -47 -49 88 79 78 47 26 2 7 44 38 58 36 50 81 62 72 73 56 50 22 22 27 29 35 10 15 -46 137 592 461
148 -73 -78 73 3 44 -6 -26 -36 -13 -7 -58 -74 -30 6 16 15 13 58 96 58 67 52 52 58 45 47 62 52 87 113 112 60 8 34 58 482 563
44 50 18 62 87 87 87 81 67 69 91 119 9 7 44 89 78 46 52 60 51 42 70 33 84 66 56 -6 35 121 162 128 54 63 34 30 276 652
74 80 -11 92 29 31 83 115 125 144 107 72 77 65 61 69 104 125 91 99 52 84 73 88 61 87 84 47 -5 87 155 169 67 93 84 -11 155 709
73 78 57 69 58 70 86 101 102 97 153 121 130 106 83 89 88 133 128 106 113 137 78 99 92 76 30 51 45 44 71 168 86 81 77 88 216 581
109 128 109 42 35 61 53 79 67 52 55 124 123 118 115 115 112 104 136 149 134 138 195 129 60 114 106 64 15 33 100 111 153 189 96 121 346 572
54 77 95 99 41 22 17 35 56 41 37 94 131 122 128 136 121 115 113 121 132 120 145 144 127 167 149 87 31 50 73 142 212 353 444 532 431 737
51 61 1 27 17 18 12 39 43 29 93 102 119 142 148 131 114 110 127 102 94 114 154 186 126 162 159 114 71 64 118 134 207 382 531 628 665 832
38 56 36 35 35 39 -2 -4 39 61 137 171 169 146 150 132 102 90 67 88 131 147 192 166 80 161 137 103 103 97 107 109 197 320 474 634 766 804
68 65 61 86 41 85 84 39 7 11 20 95 111 75 82 71 50 33 65 137 146 261 258 226 113 128 121 129 93 102 184 186 209 212 354 425 447 448
63 -70 13 30 56 83 100 88 16 15 16 35 44 51 16 -3 9 28 104 109 123 134 190 153 115 33 119 146 129 133 189 213 223 235 262 325 296 273
-31 -9 -62 51 72 83 86 101 75 63 10 34 21 -11 29 58 114 85 100 116 122 147 145 152 57 125 133 118 83 174 148 205 242 231 204 207 183 218
-1 -6 5 23 50 63 75 70 76 76 58 54 20 4 -22 -9 71 70 86 96 116 144 116 125 126 141 134 70 109 140 150 168 202 230 258 259 226 173
4 20 34 38 35 50 63 78 70 45 33 49 91 66 1 -21 -16 15 67 84 131 143 118 108 136 145 130 137 124 127 178 84 178 201 244 217 209 214
-2 3 35 41 57 73 52 74 58 38 43 43 26 27 39 35 11 17 42 97 118 146 159 155 143 129 147 110 126 162 281 348 289 265 241 191 135 135
-2 -4 22 43 50 64 89 76 80 81 69 66 56 40 35 43 38 54 67 91 101 110 131 143 156 165 150 120 150 198 203 233 260 289 287 234 132 91

GFSNE_con_3kmhel_012.txt.gz
Helicity
165 139 148 129 143 138 135 137 117 20 -16 -20 -31 -24 -32 28 88 80 103 159 195 94 102 86 4 44 37 36 40 65 65 157 194 159 158 154 129 126
136 129 130 131 141 147 141 129 130 102 -6 15 -12 -10 -15 -7 49 71 25 53 74 111 101 69 108 77 52 -11 91 31 89 6 251 230 232 152 150 136
130 122 118 119 123 132 133 117 107 100 54 18 25 16 -2 -2 3 26 63 22 -2 22 57 40 29 12 42 46 -11 31 51 8 146 222 266 226 172 150
117 124 117 116 109 108 122 108 108 97 83 28 16 10 3 -4 -7 1 15 36 45 39 40 40 17 29 4 23 30 -14 -53 -8 104 27 191 237 198 214
118 112 102 102 103 113 115 121 115 95 95 80 46 51 43 29 21 26 22 16 43 76 77 64 31 6 11 17 23 8 -10 -38 -16 27 22 53 260 265
121 118 113 111 102 87 84 85 78 69 51 44 33 24 20 21 24 9 6 22 31 63 81 86 74 39 -24 -13 -12 19 43 31 -1 55 84 113 56 232
97 89 84 81 56 78 109 81 74 80 73 51 29 12 26 33 43 35 29 12 21 55 87 98 140 114 90 59 21 -33 -57 4 -11 -27 97 125 161 36
113 105 103 68 86 73 78 75 92 104 80 72 53 47 42 52 47 60 57 49 41 68 79 118 99 128 99 103 65 30 1 -7 26 27 62 102 98 72
134 138 50 73 41 69 38 -27 -43 -39 -43 -86 -22 51 61 82 80 74 72 68 61 61 13 100 108 100 80 82 57 50 28 27 61 71 63 88 113 97
9 70 82 61 58 45 63 91 68 62 78 124 93 126 98 97 124 117 96 81 86 76 35 76 61 66 73 79 53 45 34 22 50 92 104 90 83 138
74 82 98 95 58 15 56 74 62 107 99 70 73 89 89 73 89 131 133 111 88 96 123 59 67 31 58 81 76 61 78 56 48 55 127 135 102 100
73 89 68 102 63 71 73 76 88 78 82 100 135 101 88 96 61 110 160 140 113 93 131 117 129 107 -23 20 78 118 96 37 30 73 145 150 153 137
86 38 99 1 -5 40 46 67 67 68 57 80 74 102 122 142 129 106 111 142 124 124 117 107 132 189 145 67 73 80 49 22 -0 45 102 134 111 108
-9 25 23 7 -6 6 23 45 27 39 58 39 106 76 77 103 112 118 112 121 111 116 122 132 136 148 157 108 64 89 79 -3 7 17 39 97 90 106
3 29 10 21 10 16 5 24 -4 -23 77 108 130 108 117 110 108 111 111 120 123 135 115 138 143 145 134 120 92 70 72 78 35 56 64 181 178 194
-24 88 56 79 81 50 57 50 20 58 63 87 116 107 104 114 144 150 99 76 85 83 93 92 105 128 166 157 145 146 126 125 69 69 61 268 348 394
-31 -54 -56 11 75 88 82 58 26 -2 3 -12 57 97 88 76 75 145 70 88 98 68 66 82 106 150 158 67 113 130 113 130 109 95 92 225 410 474
-30 -60 -32 27 75 68 63 72 62 55 27 33 32 27 20 15 34 55 46 36 66 143 170 178 233 228 215 151 117 95 121 115 140 105 110 151 214 291
-28 -33 -29 35 67 59 50 47 61 66 32 12 42 24 27 36 57 47 20 67 108 143 160 150 118 155 117 116 136 156 98 121 139 94 93 119 153 171
-18 -25 -24 5 44 66 60 44 49 46 38 14 -5 3 -3 11 10 43 39 57 65 85 109 103 113 129 103 -6 -12 50 59 95 115 116 108 146 128 111
-12 -9 -2 -2 11 34 79 67 38 46 40 26 21 -0 -17 -37 -33 11 36 49 50 61 75 87 81 87 96 138 130 111 108 69 72 92 101 136 141 142
-8 -3 8 21 19 27 51 78 80 58 66 62 36 6 -23 -26 -37 -44 -10 29 45 63 62 73 84 106 118 124 133 161 223 251 261 228 238 118 101 88
13 6 13 24 33 36 31 39 43 28 47 69 69 40 -5 -23 -18 -3 -3 -15 27 65 70 80 88 105 85 88 118 153 137 150 157 210 246 326 72 61